Theta_e
318 317 316 317 316 316 316 316 317 317 317 317 317 318 318 319 320 320 320 321 321 322 322 323 325 325 325 326 326 325 322 318 317 315 311 314 321 334 336 338 337 335 327 312 309 309 308 309 308 308 311 311 308 309 308 308 306 311 303 302 299 301 299 303 301 302 302 302 301 299 301 303 301 301 303 304 303 304 304 303 305 305 305 308 308 309 311 318
317 317 316 316 315 315 315 315 316 316 316 316 317 318 318 318 319 319 320 320 321 322 322 323 324 325 325 325 325 324 321 321 312 312 312 325 332 335 337 337 337 332 325 312 310 308 307 307 307 308 309 306 309 306 306 307 306 306 301 301 298 301 302 304 304 303 302 303 303 302 300 302 303 303 303 302 303 303 302 304 305 305 307 308 308 310 310 319
317 316 315 316 315 315 315 315 316 316 316 316 316 317 317 317 318 319 319 320 320 321 322 323 324 325 325 325 324 321 318 316 312 308 311 322 331 336 337 337 333 326 317 313 310 310 309 308 307 307 307 305 305 304 307 303 307 301 304 298 299 305 302 300 302 302 300 301 301 301 300 300 301 303 304 302 303 302 302 303 303 304 305 307 310 311 312 318
316 316 315 315 314 315 314 315 315 316 316 316 316 316 316 317 317 318 319 319 320 321 322 323 324 324 324 324 323 320 315 310 304 307 313 326 333 334 335 335 328 321 313 310 308 309 307 308 307 308 306 305 304 304 304 303 304 302 301 299 301 299 302 301 300 300 299 299 302 302 299 300 301 302 303 303 301 302 304 306 305 305 306 308 311 311 314 317
316 316 315 314 314 314 315 315 315 315 316 316 315 315 316 316 317 318 318 319 320 321 322 323 323 324 324 324 320 320 317 300 304 308 318 328 331 332 333 333 324 313 311 308 310 308 309 309 307 307 307 302 304 304 301 302 301 304 300 299 299 298 302 299 300 298 299 297 301 300 300 301 301 301 302 302 301 302 305 307 308 308 308 309 310 313 315 316
316 315 315 314 314 314 314 315 314 315 315 315 315 315 315 316 317 317 317 319 320 321 321 323 324 324 323 322 322 314 310 293 305 312 325 327 330 330 330 326 319 309 311 310 309 308 309 307 308 305 303 303 300 301 301 301 300 300 299 299 299 299 301 299 299 297 298 300 301 300 302 301 301 302 302 302 303 305 305 305 306 306 306 307 312 313 313 315
316 316 316 314 313 314 314 315 314 314 315 315 315 315 315 316 316 317 317 318 320 321 321 323 323 323 322 321 318 313 305 304 308 314 324 325 327 323 324 321 313 310 310 311 309 309 307 306 307 304 303 301 299 301 299 300 300 302 300 299 299 298 300 298 300 296 297 299 301 301 300 301 300 300 301 299 304 307 304 304 305 305 303 305 311 312 313 315
317 317 315 313 314 314 314 315 314 314 314 315 316 316 316 316 316 316 317 318 319 320 321 323 323 322 322 319 315 306 306 305 313 314 320 322 314 311 319 313 311 315 311 309 309 308 307 305 305 302 303 301 301 302 299 301 302 301 300 299 299 298 299 298 298 297 297 298 298 299 300 301 301 301 299 301 304 306 306 304 304 305 304 306 309 311 313 315
317 315 315 314 313 314 314 314 314 314 314 316 316 316 316 316 316 316 317 317 319 320 321 323 322 320 318 315 306 301 301 310 314 318 318 314 310 309 313 314 311 312 309 309 307 310 309 303 303 304 301 301 300 301 300 301 300 301 301 300 300 300 300 298 298 297 298 300 299 300 301 300 300 299 299 304 306 305 306 305 306 305 305 306 308 310 313 315
316 315 314 313 313 314 313 313 313 314 315 315 315 316 316 316 317 316 316 317 319 320 321 323 321 317 313 313 305 299 305 314 318 317 313 310 308 312 314 313 311 311 312 308 309 309 309 306 306 306 306 301 301 300 298 301 300 300 300 300 301 299 300 298 301 300 299 301 299 300 301 300 298 299 301 305 304 301 303 305 306 305 305 307 308 309 312 313
316 314 313 312 313 313 312 312 313 315 315 315 316 316 316 317 317 317 317 317 319 320 321 321 319 316 317 307 301 298 311 319 317 315 311 310 312 313 313 313 311 311 311 310 309 308 308 308 308 305 307 303 302 300 300 299 300 299 300 299 300 300 299 299 299 300 301 301 299 301 300 299 299 300 301 305 302 303 304 305 305 305 306 307 307 308 310 311
317 315 314 313 312 313 312 312 313 314 314 315 316 316 317 317 317 317 318 317 318 320 321 320 318 313 310 308 302 304 305 317 315 313 312 313 313 312 312 309 309 316 313 308 309 311 310 308 310 306 302 304 300 300 300 299 300 299 298 300 300 301 301 300 301 299 298 301 299 301 300 298 298 299 304 303 302 302 303 304 305 305 306 307 308 308 308 309
317 315 315 314 313 312 312 314 313 313 314 315 315 317 318 317 317 318 317 318 318 320 321 320 317 316 310 300 305 310 312 315 314 310 312 313 311 310 309 310 311 311 314 311 309 311 308 309 310 304 303 303 301 300 300 302 299 299 301 300 300 300 300 299 298 298 299 300 298 300 294 300 301 302 305 301 302 302 302 304 305 305 306 306 306 307 308 309
316 315 316 315 313 313 314 314 315 314 315 315 316 318 318 318 317 317 318 316 320 320 321 319 317 312 306 301 311 313 312 317 312 312 312 310 312 313 312 312 312 312 315 310 308 308 309 308 309 304 306 303 301 302 302 301 301 300 298 300 298 297 297 299 299 298 299 298 298 300 295 299 302 304 304 299 299 301 302 304 305 305 305 305 306 306 307 309
316 316 316 316 314 314 314 315 316 316 316 316 317 318 318 318 317 318 319 319 320 321 321 318 315 308 301 302 308 313 318 316 312 313 312 310 311 310 310 311 309 308 308 310 310 307 306 311 310 305 301 300 303 301 299 300 299 298 297 296 297 295 298 299 298 298 299 298 299 300 295 298 302 304 300 300 298 299 301 304 305 305 304 305 305 305 307 308
316 316 316 316 316 315 315 315 316 317 317 317 316 317 318 318 318 319 320 320 321 317 318 319 313 310 300 298 309 322 315 311 311 313 312 310 316 311 312 309 310 309 310 307 306 307 309 309 303 300 301 301 301 301 299 298 299 298 296 297 294 295 297 297 297 296 296 298 298 299 297 300 300 302 300 298 299 299 300 302 304 304 303 304 304 305 306 307
317 316 316 317 315 315 316 316 315 316 316 316 316 317 319 319 319 319 319 318 315 314 319 309 306 305 298 304 311 306 307 312 310 313 312 309 311 311 311 311 308 308 310 308 312 311 308 306 299 302 302 301 300 301 296 295 295 296 296 295 297 294 296 294 297 296 298 297 297 298 295 298 302 302 302 298 300 300 300 302 303 304 304 304 304 304 305 306
318 317 316 316 316 316 316 315 315 315 315 315 315 318 318 319 319 317 318 316 314 311 312 311 313 305 299 301 301 303 307 311 312 308 309 307 309 309 311 307 304 309 310 307 308 306 305 303 303 301 301 300 299 299 293 291 295 295 295 294 294 293 293 295 296 296 296 295 296 298 296 298 301 303 304 304 301 301 301 302 304 304 304 304 304 304 304 305
319 318 317 317 316 316 316 316 315 316 315 316 318 318 318 317 317 317 313 312 303 300 298 301 299 294 294 299 306 307 310 309 310 311 308 309 309 309 308 310 312 307 304 303 302 304 305 304 304 300 296 297 297 298 296 297 296 295 296 295 295 293 295 294 298 296 296 297 296 297 296 298 300 302 304 305 303 301 302 302 303 303 303 303 303 304 305 305
319 319 318 317 317 317 316 316 316 316 316 316 316 315 312 308 308 305 310 306 303 300 300 302 303 301 301 301 307 309 310 311 308 309 311 309 309 309 306 307 309 307 303 301 302 301 301 299 296 296 298 300 300 300 299 296 297 296 297 296 295 295 296 298 296 296 295 295 296 298 298 298 299 301 303 304 304 302 301 301 301 303 303 304 304 304 305 305
319 319 319 318 317 317 317 317 317 316 315 315 313 305 299 303 296 294 301 305 307 302 305 304 303 302 304 306 308 308 306 306 309 309 310 310 308 308 304 306 304 301 300 298 302 300 301 298 298 300 299 298 299 297 296 296 296 296 295 295 294 295 293 297 296 295 297 295 297 298 297 298 299 301 302 303 302 301 302 302 303 304 305 305 305 306 306 307
319 319 319 318 318 318 317 317 317 318 315 315 312 302 307 303 304 307 306 296 303 305 305 305 303 305 305 305 308 308 309 305 306 308 311 309 307 304 303 303 301 298 298 299 300 299 297 296 299 299 297 297 296 296 296 297 295 296 295 296 294 295 297 298 296 295 295 294 294 297 296 297 299 301 303 302 302 303 305 304 304 305 306 306 306 306 306 306
319 319 319 318 318 318 318 317 317 317 314 311 310 305 308 312 310 309 309 303 302 302 305 304 302 303 304 305 307 306 304 302 302 306 308 309 304 304 302 300 300 299 297 299 297 297 294 297 300 298 298 296 294 295 295 295 296 296 295 293 293 296 293 293 296 295 295 295 296 295 294 296 299 301 302 304 303 304 306 305 305 305 304 305 306 307 307 306
318 318 319 318 319 318 318 317 317 315 312 311 307 308 311 309 310 308 308 296 295 298 304 305 304 303 304 302 308 307 304 302 302 304 310 307 304 304 303 301 298 298 297 298 299 297 296 298 294 296 298 298 294 294 295 295 294 297 297 296 295 295 295 294 295 295 295 294 293 295 295 297 300 300 302 304 304 302 303 304 304 305 305 306 307 308 307 305
318 318 318 318 318 319 318 317 312 310 313 309 308 313 311 311 310 310 303 294 294 295 302 301 305 305 305 309 308 305 303 302 304 307 310 308 301 301 301 299 300 297 299 298 297 297 297 297 297 295 296 297 296 293 296 298 294 296 297 296 297 297 296 295 294 294 295 295 295 294 290 293 298 298 300 304 302 302 304 302 303 304 305 305 304 305 306 306
318 318 318 318 318 318 318 309 310 312 309 307 311 313 311 311 310 308 301 289 288 294 297 295 307 300 313 304 309 306 302 298 304 305 308 309 309 304 299 299 299 297 297 296 297 298 297 294 298 297 296 296 296 296 298 298 295 293 295 297 297 297 296 295 294 294 291 290 294 294 290 287 297 296 300 302 301 302 305 305 305 306 306 306 305 306 305 305
318 318 318 318 319 318 309 305 313 312 304 307 315 313 310 311 312 310 294 288 284 297 294 299 298 300 311 305 306 300 290 294 304 306 306 307 305 307 300 298 296 297 298 299 294 293 295 294 295 297 296 296 295 293 297 296 296 293 295 294 295 295 294 295 294 294 294 295 296 293 296 290 290 297 301 301 300 301 302 304 306 307 308 307 307 306 306 306
319 318 318 318 319 316 312 312 310 306 307 310 312 312 312 312 311 303 294 280 281 301 296 294 300 307 307 304 306 297 296 300 297 301 304 306 305 303 300 298 298 297 295 297 289 298 296 294 295 295 296 295 295 297 298 298 296 296 292 295 296 296 297 295 295 294 293 291 290 293 296 290 291 296 297 298 297 299 300 303 305 307 309 307 307 307 307 306
319 318 317 318 318 317 316 312 310 307 312 311 312 312 311 311 305 297 288 279 296 294 310 295 309 305 301 302 298 297 297 298 295 299 305 305 306 303 298 299 298 298 296 297 295 294 294 297 298 300 297 294 296 291 296 298 296 293 293 295 295 295 295 296 295 294 293 291 288 292 295 288 290 296 296 296 297 298 301 303 305 307 308 307 307 307 306 304
319 318 318 318 317 314 313 314 311 313 311 312 312 312 312 308 297 288 280 276 302 289 298 299 299 296 300 296 295 296 296 296 298 301 303 301 303 304 298 301 298 297 296 296 297 295 294 295 295 297 297 298 293 292 291 296 295 296 298 298 297 296 295 295 295 294 292 287 290 294 295 292 286 294 296 295 297 300 302 303 305 307 307 307 307 307 307 304
318 319 318 318 313 313 313 308 311 312 312 313 312 312 308 301 290 284 276 287 299 296 296 295 293 300 295 294 292 294 297 295 298 300 298 301 299 300 300 298 302 299 295 295 295 295 296 295 296 297 294 294 297 294 295 293 295 299 298 296 296 294 294 293 292 293 287 285 291 291 294 295 285 292 297 301 300 300 303 303 304 306 306 308 307 304 303 301
317 319 319 317 317 316 309 309 314 312 312 314 313 307 299 286 292 281 282 292 286 292 294 292 294 296 295 298 296 293 294 296 299 298 297 296 297 296 296 293 295 289 289 291 291 293 293 295 296 296 296 297 298 296 294 296 295 297 297 296 289 287 287 284 288 285 286 285 288 288 290 288 288 294 299 299 300 301 301 302 304 306 306 308 307 305 303 302
316 317 318 318 315 312 315 315 312 312 314 313 309 307 291 287 279 286 288 290 287 297 292 298 293 294 295 294 293 295 296 293 297 297 299 297 297 297 300 298 299 296 287 293 292 290 293 295 295 297 296 297 300 294 292 290 293 294 294 292 288 284 283 281 284 283 283 287 287 288 292 287 293 296 300 299 302 303 304 304 304 305 305 307 307 307 303 302
317 316 315 316 316 315 314 313 313 313 312 311 305 294 286 283 283 294 290 291 293 293 296 295 294 294 294 291 293 295 291 294 295 295 298 295 296 294 296 298 297 294 294 291 289 289 285 285 291 294 293 300 298 298 297 296 294 294 300 296 291 289 285 281 283 281 284 287 286 289 286 286 288 295 300 302 303 304 305 305 305 304 305 305 304 303 302 302
316 316 316 316 315 316 312 314 313 313 310 304 296 289 281 281 290 290 290 292 292 294 293 297 294 293 291 291 291 295 295 290 296 295 294 294 291 294 294 294 297 297 296 289 292 290 289 290 295 298 296 299 296 300 301 298 295 296 297 297 291 290 292 285 287 286 284 286 286 283 286 293 294 299 300 299 299 299 299 300 301 301 303 303 303 303 303 301
313 313 316 312 312 314 314 314 313 312 306 299 291 284 283 288 287 295 293 298 294 294 292 295 295 292 292 292 293 293 296 293 293 294 292 294 295 293 297 297 296 296 292 289 294 287 288 287 292 295 295 297 297 297 298 299 287 293 294 289 293 296 295 288 283 283 281 284 283 290 289 293 298 298 299 300 299 299 300 299 299 300 302 303 303 304 304 305
310 313 308 312 313 314 314 314 313 309 304 296 289 283 289 293 298 299 299 296 298 297 294 289 290 291 289 288 292 291 293 296 293 294 290 295 291 295 294 296 300 298 298 296 291 298 288 289 290 293 292 294 293 294 299 297 298 293 289 293 295 298 298 291 285 286 285 282 284 287 286 289 290 287 297 298 298 300 300 301 301 301 302 301 302 304 306 307
309 308 309 310 315 315 315 314 312 308 301 294 286 289 297 292 302 299 298 298 297 298 295 293 293 296 291 291 290 292 294 292 291 292 291 293 290 301 296 295 299 299 299 301 294 294 295 287 291 288 291 294 294 297 297 297 297 296 294 303 293 287 286 291 288 281 281 280 283 287 287 287 290 292 295 295 295 298 300 301 301 301 302 302 303 304 304 306
309 307 300 308 316 315 314 314 310 303 297 288 287 287 293 294 304 300 299 298 300 298 294 295 293 294 296 291 293 293 293 288 293 290 289 292 288 298 296 298 297 300 300 300 294 295 296 288 288 290 292 294 295 296 289 292 296 296 296 295 297 294 290 287 288 288 288 283 282 284 286 286 296 296 297 298 299 301 302 302 301 301 302 303 304 304 305 304
304 300 298 312 315 315 315 311 305 300 294 286 288 288 299 294 298 300 299 299 298 296 295 296 297 293 293 294 295 291 294 293 292 292 292 295 292 298 296 300 298 297 300 300 296 302 293 292 286 290 292 293 289 293 292 294 290 291 293 292 292 291 294 294 290 288 287 284 284 283 283 289 297 301 299 300 300 301 302 303 305 304 305 305 304 305 305 305
307 301 301 312 314 314 312 306 298 293 289 287 291 291 295 294 297 297 298 300 297 298 295 295 296 293 295 292 291 296 293 293 293 292 292 293 293 291 298 299 301 296 299 299 297 298 290 289 286 289 288 288 293 297 297 298 298 295 293 291 293 289 287 285 284 289 286 287 284 283 283 290 299 298 301 301 302 303 304 304 305 306 305 303 303 303 302 304
300 292 298 313 314 313 305 295 295 298 290 287 287 291 292 300 295 296 297 296 296 296 299 295 294 294 295 294 296 294 294 292 292 292 294 292 296 296 298 301 300 300 296 292 294 299 297 295 290 286 289 291 294 292 290 290 293 294 295 294 297 295 294 289 284 286 285 287 285 287 284 288 300 300 302 303 303 302 303 304 305 306 306 303 304 304 303 300
297 296 307 312 313 310 301 293 296 294 288 291 297 295 297 295 296 297 295 295 293 295 293 294 295 294 294 296 295 293 294 292 293 291 295 295 296 298 298 299 301 299 300 299 299 298 295 290 288 290 293 293 293 292 292 291 295 293 294 293 295 292 294 292 291 290 288 288 286 287 283 289 297 296 298 297 297 299 299 301 304 304 303 301 303 305 302 299
298 298 302 310 313 310 299 288 288 290 292 295 295 294 297 296 295 294 294 295 294 294 293 294 294 296 294 296 295 291 295 288 293 294 293 296 294 296 297 299 300 298 298 295 294 298 290 290 291 287 286 289 290 293 292 294 294 292 293 294 296 297 297 291 288 290 288 289 288 287 282 288 296 295 293 296 295 296 298 299 299 301 303 303 302 302 300 299
297 300 299 302 308 307 295 297 294 292 292 292 291 290 292 294 297 297 297 294 297 296 295 293 295 295 294 293 293 293 295 293 288 293 294 292 296 294 297 299 300 299 300 300 297 300 292 291 288 283 281 280 280 281 284 286 288 292 292 294 295 295 295 289 288 289 285 289 288 287 288 294 298 297 297 295 295 296 297 298 297 298 300 302 301 301 300 298
292 285 296 298 300 301 301 303 299 295 292 292 290 291 293 291 295 298 299 296 297 297 296 297 296 296 291 291 290 291 292 296 292 288 291 292 295 294 293 296 298 299 297 296 296 297 288 290 291 289 287 286 288 290 294 296 291 288 290 291 292 294 296 294 292 289 286 289 288 290 291 293 296 298 297 297 294 297 299 300 298 299 299 299 299 299 300 299
297 289 292 289 296 294 294 299 297 297 292 296 289 293 290 292 294 294 300 293 297 296 296 296 294 292 291 292 291 291 294 293 294 290 290 293 292 293 291 292 296 297 295 295 296 292 287 289 290 291 291 293 295 295 296 296 290 292 291 291 293 293 293 290 289 288 293 289 286 293 295 290 293 297 299 298 297 296 298 300 301 301 302 304 302 299 296 296
285 291 296 298 292 288 286 288 297 295 297 296 290 296 292 291 292 290 295 297 299 298 294 294 295 295 295 292 293 288 291 291 291 289 292 291 292 291 292 291 292 295 294 294 296 294 288 288 290 291 290 294 296 296 297 295 295 295 294 294 292 293 291 288 289 294 295 289 287 294 296 293 295 297 300 301 302 300 299 300 301 303 302 301 299 297 297 298
294 294 292 297 290 292 292 291 293 295 294 295 293 294 291 292 291 294 293 293 295 294 296 288 291 294 296 297 294 289 291 286 286 290 289 290 289 288 288 289 291 291 293 292 293 291 290 288 290 292 290 293 294 295 296 295 293 294 294 295 295 293 292 292 292 294 294 293 295 296 296 296 298 300 301 302 304 304 302 302 303 301 300 301 300 298 298 299
288 289 287 294 291 291 291 292 291 289 288 292 289 290 293 292 292 294 296 294 288 292 297 292 294 295 296 296 295 291 293 294 294 288 292 292 289 289 290 292 289 288 291 291 292 291 292 288 293 290 288 289 293 294 294 293 293 290 293 295 295 295 294 294 294 295 294 295 296 296 295 294 300 302 303 304 304 304 302 301 301 302 302 302 301 300 300 299
297 296 296 290 286 289 292 291 289 288 287 288 287 288 291 293 293 296 294 298 294 292 294 292 295 296 297 295 294 294 297 297 297 297 297 295 290 294 292 289 295 288 288 289 290 290 291 289 291 290 287 287 290 291 291 291 290 289 289 292 292 292 290 292 291 294 293 291 293 293 291 293 299 303 303 303 303 301 300 301 301 302 302 302 302 302 301 300
297 297 297 293 285 290 289 292 291 290 285 289 288 289 289 290 295 297 291 297 298 299 298 297 297 295 294 294 293 295 299 300 300 301 300 299 299 299 298 297 296 293 289 288 291 288 288 289 289 289 286 286 290 291 290 289 288 285 286 290 292 293 294 295 295 296 296 297 292 289 291 298 300 301 300 301 301 300 301 302 302 302 303 303 302 303 302 301
Wind_Speed
7 6 5 5 5 4 3 3 3 3 3 3 3 4 4 4 5 5 6 6 6 7 7 8 8 9 9 9 10 10 10 1 2 0 1 2 3 7 8 7 8 9 1 3 3 4 2 2 2 2 2 1 3 0 1 2 2 2 4 3 5 1 6 6 7 8 3 2 8 8 9 7 6 4 3 3 3 1 2 5 3 2 5 1 3 2 3 5
7 6 5 4 4 4 3 3 3 3 3 2 3 3 4 4 4 4 5 5 6 7 7 8 9 9 9 9 10 9 5 2 5 6 4 4 5 7 8 8 7 8 3 3 2 3 3 2 3 1 3 2 2 2 2 2 3 1 2 2 4 3 1 2 2 6 2 2 6 7 4 5 3 8 5 6 6 6 6 7 5 7 7 6 4 4 6 7
8 7 5 5 4 3 3 3 3 3 2 2 2 3 3 3 3 3 4 5 6 7 7 8 8 9 9 9 9 6 2 2 2 2 2 3 7 6 7 7 7 6 4 2 1 1 0 3 3 2 3 4 4 3 1 3 3 2 3 4 3 1 2 1 2 6 2 1 7 7 4 3 2 2 5 5 3 3 10 8 6 9 11 11 9 7 9 10
7 6 5 5 4 4 3 2 2 2 2 2 2 2 2 2 2 3 4 5 5 7 7 8 9 9 9 9 8 3 2 2 2 1 2 5 7 6 6 6 6 4 2 6 2 3 4 6 4 0 3 3 2 1 1 3 3 2 3 3 1 2 3 2 3 2 2 4 3 4 4 4 3 2 5 3 5 10 10 11 10 11 12 9 11 10 10 11
10 6 6 5 4 4 4 3 2 2 2 1 2 1 2 1 2 3 4 4 6 7 8 9 9 9 9 8 6 2 1 3 3 0 4 6 7 6 5 5 5 2 1 5 6 5 3 2 2 3 1 4 1 2 3 1 3 2 3 4 2 1 1 3 1 3 1 2 2 4 7 6 5 1 6 6 10 8 7 8 9 11 3 8 12 11 10 11
8 6 6 5 4 4 4 3 2 2 2 1 0 0 1 2 2 3 4 5 6 7 8 9 9 10 9 8 2 2 3 3 1 1 5 8 6 6 5 2 3 2 4 3 1 2 2 3 3 2 2 2 2 2 3 1 3 2 1 0 0 2 2 2 1 1 3 3 5 6 3 5 7 4 4 8 15 1 5 5 1 1 2 2 7 12 11 12
7 7 7 6 4 5 5 4 3 2 2 2 2 1 2 2 2 3 4 5 6 7 8 9 9 10 11 4 2 3 0 3 0 2 5 8 6 4 4 2 1 1 2 2 1 2 1 4 1 3 3 4 1 4 2 1 1 3 4 3 2 1 2 1 0 3 3 3 3 2 2 5 5 9 2 8 13 9 3 2 1 1 1 3 8 12 13 14
8 8 7 5 6 6 5 4 3 3 2 3 2 3 1 2 2 4 4 6 6 8 8 9 9 9 9 3 2 2 0 2 2 0 4 6 3 4 1 1 2 1 4 3 1 4 2 2 5 3 2 1 3 2 1 2 2 3 5 3 3 1 0 1 1 3 2 2 2 1 5 3 3 2 2 10 11 12 8 3 2 1 3 4 7 10 11 11
8 8 7 6 6 5 5 5 4 4 4 4 2 2 0 1 3 3 4 5 6 7 8 9 9 11 4 3 2 3 3 1 1 3 5 4 3 3 2 1 3 3 4 1 3 1 4 1 2 4 3 5 2 4 1 2 4 3 3 3 3 2 2 3 3 3 2 1 2 4 4 2 0 2 9 17 7 3 2 3 3 3 5 6 8 10 11 11
10 8 7 7 7 6 6 5 4 5 4 3 3 1 0 2 3 3 3 5 7 7 8 8 10 9 3 2 2 5 2 2 2 2 3 2 1 0 6 3 1 3 2 3 1 1 1 4 0 5 9 7 2 3 3 3 2 1 4 1 3 2 1 1 1 2 0 2 1 4 2 2 1 1 9 3 2 2 3 6 3 4 7 7 6 7 9 10
12 11 9 9 8 7 7 6 6 6 4 3 1 2 1 2 4 4 4 5 6 6 7 7 10 5 0 1 4 3 1 2 1 2 2 2 2 4 4 3 2 2 8 4 5 4 4 6 3 3 2 3 5 3 2 3 1 2 1 3 3 2 3 2 2 2 1 2 2 3 3 0 2 2 13 3 1 1 4 6 6 5 6 6 8 7 7 7
12 12 11 10 10 9 8 7 7 6 4 3 1 3 3 4 6 5 5 4 6 6 6 6 7 2 1 2 3 2 1 2 2 1 0 2 5 2 2 3 3 3 2 5 3 2 3 5 3 1 2 3 3 3 5 2 1 2 2 4 1 1 3 3 3 1 2 2 2 1 6 8 8 12 15 3 1 1 3 7 6 6 6 6 6 6 6 8
12 10 11 10 9 9 8 7 6 6 4 3 3 5 5 5 7 6 5 6 4 6 6 5 5 2 1 3 2 0 2 1 1 3 6 5 6 2 3 2 3 4 2 7 3 2 2 2 3 9 3 0 4 1 5 1 2 2 4 3 3 3 5 3 1 1 3 1 0 1 7 5 14 19 8 3 2 1 5 8 7 6 6 6 6 6 7 7
9 9 11 10 9 9 8 7 5 5 5 4 5 5 5 6 7 6 5 5 6 6 6 6 3 3 2 2 2 1 0 1 1 2 4 2 1 3 3 3 5 6 6 11 5 1 1 2 6 10 4 3 4 2 5 3 2 2 2 2 2 2 2 2 1 2 5 2 1 2 8 7 3 7 1 3 1 6 10 10 7 6 6 5 6 7 8 9
11 10 10 10 10 8 8 7 7 6 5 6 5 5 5 7 6 5 5 5 6 6 6 4 2 2 3 3 1 2 2 1 2 2 3 1 8 5 4 4 10 8 6 6 4 1 0 1 2 3 4 2 3 4 4 2 3 2 2 4 2 3 1 2 3 3 4 3 1 4 9 12 8 5 5 2 1 3 9 9 7 6 6 6 6 8 9 9
11 10 8 9 9 9 9 8 7 5 6 6 5 6 6 7 6 6 6 6 5 4 3 3 1 2 4 4 2 4 2 4 4 3 1 2 3 5 2 6 4 5 1 5 2 1 4 8 8 1 4 1 4 4 4 2 2 2 3 1 1 0 2 6 3 1 2 2 2 9 8 3 3 1 3 2 1 3 7 10 8 9 8 7 8 7 8 8
11 10 9 7 8 9 8 8 7 5 6 5 7 7 7 6 6 6 6 4 3 2 2 1 2 1 4 2 2 3 3 1 2 1 1 2 2 8 7 4 4 5 5 4 3 0 7 4 1 1 3 1 1 3 3 4 3 4 2 4 1 4 1 3 4 2 1 3 6 8 7 14 10 3 4 3 3 2 7 10 10 9 7 7 7 8 9 10
12 12 11 9 8 8 7 7 7 7 6 6 6 5 5 5 4 3 3 2 1 1 1 1 2 2 2 1 4 3 2 1 1 1 3 3 1 3 2 4 1 4 3 4 5 2 4 1 2 1 2 3 4 6 5 5 3 2 4 4 4 2 6 8 5 3 2 1 6 7 12 17 16 15 11 6 5 7 12 11 12 11 9 8 8 9 11 10
13 12 11 11 9 8 8 7 7 6 6 5 6 6 6 4 2 1 2 1 2 4 3 5 5 8 2 7 4 3 0 2 1 2 4 2 3 2 6 5 4 7 3 2 2 1 2 3 0 2 7 5 8 8 9 1 3 2 4 1 1 4 4 6 3 3 3 4 7 11 12 14 16 15 13 10 7 10 14 13 12 12 11 10 11 11 10 10
13 13 13 12 10 8 7 7 6 6 3 3 2 2 2 3 3 3 1 0 4 1 2 2 3 5 5 1 5 2 1 2 3 3 1 2 3 7 6 2 4 4 4 5 3 3 3 5 5 7 9 9 8 8 1 6 5 6 4 1 3 5 9 5 1 2 1 4 12 14 14 16 18 16 16 15 8 9 12 14 14 12 11 10 11 13 13 13
13 13 12 11 10 8 7 7 6 5 5 1 2 3 5 6 7 4 4 5 2 2 4 2 3 3 3 4 3 7 6 3 3 2 2 1 5 6 2 2 4 5 1 3 3 1 2 5 8 10 5 4 3 4 6 6 3 1 1 2 4 3 9 3 1 3 1 3 6 4 8 14 16 15 15 15 13 17 17 17 17 16 13 11 13 15 15 13
14 13 12 11 10 9 8 7 7 3 4 1 3 4 3 3 2 3 2 4 4 1 1 3 2 2 1 1 1 2 2 4 3 3 2 2 3 7 4 5 5 7 4 4 4 4 5 7 7 5 8 7 6 5 3 5 4 3 4 2 3 7 5 13 4 1 2 3 11 10 12 13 13 14 15 15 17 17 17 17 18 15 14 12 12 15 15 7
14 13 13 11 11 10 9 7 5 6 2 2 4 1 3 1 3 2 1 4 2 2 3 2 3 4 1 2 1 2 3 3 6 7 6 4 4 3 8 6 7 4 4 7 8 6 3 7 4 7 7 8 5 4 6 4 3 4 4 4 7 2 1 4 4 1 3 5 5 6 13 14 16 17 20 20 18 17 15 14 14 13 15 18 19 14 8 11
15 14 13 13 11 11 9 7 5 4 5 6 4 5 1 1 1 1 1 1 1 2 2 2 3 3 6 5 6 7 3 2 2 10 1 6 9 4 6 6 7 6 8 11 11 9 5 4 2 4 8 7 7 6 7 6 6 6 7 7 6 5 7 7 4 4 4 2 1 9 11 12 12 11 9 9 10 11 16 12 14 16 16 18 14 10 12 14
15 14 14 13 13 11 8 7 5 4 3 1 7 5 3 1 1 3 0 1 1 1 1 2 3 5 4 4 3 8 2 2 5 2 5 6 8 6 4 2 3 7 7 6 1 3 6 3 6 8 4 4 7 5 8 6 6 4 7 11 10 8 9 4 3 7 6 4 3 5 8 4 2 6 8 5 4 9 7 7 11 13 13 12 13 15 11 11
16 16 15 15 14 11 10 5 5 5 4 5 4 1 4 3 2 3 0 3 5 2 3 6 6 4 5 4 5 3 6 6 2 1 4 2 3 2 4 3 1 8 9 8 6 3 2 3 2 6 7 5 6 5 4 8 5 2 2 7 12 8 4 5 2 1 4 5 2 4 6 10 4 10 8 4 7 15 8 7 11 12 10 7 9 9 8 8
16 17 16 16 16 15 7 5 4 7 3 6 4 3 3 4 2 3 2 0 7 7 8 2 1 1 1 6 8 6 6 5 1 4 4 3 5 3 6 6 3 4 3 4 2 7 5 2 5 4 6 6 5 5 6 11 4 4 3 2 2 5 7 6 4 6 7 4 4 4 4 10 12 8 10 12 15 16 14 14 14 13 11 8 8 9 9 7
17 17 18 18 18 18 1 7 10 7 5 1 1 5 4 2 1 1 1 1 5 6 4 4 1 3 0 4 2 6 3 4 7 4 3 1 1 3 3 8 10 10 6 6 9 3 6 6 7 7 4 4 7 4 6 11 6 0 1 1 4 3 3 3 3 2 2 5 7 5 4 4 9 3 2 2 8 12 14 14 14 15 9 4 6 8 6 6
17 18 19 18 19 15 3 5 8 7 1 2 4 6 4 4 2 2 2 5 1 3 2 7 3 2 4 2 4 3 3 4 1 3 3 1 5 1 7 7 2 5 2 4 6 2 2 2 6 6 8 8 3 2 3 10 8 2 5 6 6 5 5 1 2 0 2 3 9 8 10 5 16 6 5 1 5 10 12 13 14 14 4 3 6 6 4 3
17 18 19 20 16 7 1 2 5 1 3 4 6 6 6 2 2 4 4 8 3 5 2 3 4 8 9 14 5 3 4 2 2 4 3 4 2 2 5 1 4 5 4 2 2 3 1 1 2 2 6 2 6 5 2 4 4 10 6 8 4 4 2 2 2 1 2 7 9 12 16 11 11 7 7 9 8 10 10 9 9 8 6 7 7 5 3 3
11 18 21 21 11 7 5 4 5 3 3 6 7 8 5 2 3 4 8 5 4 3 2 3 3 6 15 16 8 0 3 1 3 8 6 2 3 4 5 5 3 3 1 2 4 1 1 2 3 1 3 4 4 7 6 3 4 5 3 3 4 2 2 2 1 1 3 10 1 2 8 11 12 4 5 5 1 6 8 9 9 7 6 4 0 1 1 1
5 16 22 17 9 10 13 8 8 6 5 7 7 6 4 4 5 7 7 7 4 8 9 6 1 7 12 1 3 9 9 3 5 8 10 9 9 10 11 11 8 4 6 10 5 5 4 6 1 1 3 4 6 7 4 4 1 2 4 5 4 2 1 3 2 4 6 8 2 2 1 6 17 16 3 4 8 12 10 9 8 7 8 5 3 3 1 0
3 9 20 15 10 9 6 3 11 8 6 2 5 1 7 5 12 10 8 9 4 5 4 5 7 10 11 8 6 6 4 8 4 5 4 0 6 9 5 5 9 3 8 7 5 3 4 4 2 5 2 6 8 9 5 2 7 5 9 8 5 5 4 6 1 2 5 5 2 1 3 10 8 11 18 21 19 14 9 10 10 9 11 11 3 3 2 2
4 5 9 11 12 10 6 9 9 13 12 4 4 1 5 9 13 12 14 6 2 4 5 4 7 4 11 8 7 11 7 2 10 6 6 7 7 9 10 9 6 4 3 3 10 9 6 6 9 11 6 10 10 11 9 5 12 12 3 9 6 5 3 3 4 6 6 2 1 3 0 4 2 1 1 12 12 9 8 9 7 8 12 11 5 7 8 7
2 1 5 6 8 7 7 9 11 11 9 10 4 4 12 10 11 13 12 6 1 3 5 6 12 10 6 3 2 5 2 4 4 7 5 8 9 8 10 13 11 5 2 6 4 2 10 5 3 8 3 11 13 1 5 7 3 4 0 3 1 8 4 8 2 2 2 4 3 4 7 2 6 5 3 3 5 8 5 7 8 12 12 9 9 10 9 8
3 1 4 3 7 7 8 8 11 12 14 10 7 6 13 13 10 9 6 9 4 8 9 7 5 7 3 3 3 9 2 0 6 4 2 7 2 6 9 3 11 17 9 10 5 5 4 7 3 1 2 6 3 2 2 2 9 7 6 7 5 5 5 1 2 3 1 1 11 3 9 9 9 14 16 15 11 9 6 7 7 12 14 7 9 12 11 7
3 2 4 4 8 8 11 10 10 11 11 13 13 14 13 8 0 3 3 10 7 18 12 11 8 8 10 9 7 9 5 5 5 6 7 4 6 9 6 9 4 11 15 9 1 3 4 1 2 3 8 0 2 2 3 5 1 9 6 7 3 0 5 3 6 2 1 6 6 3 8 13 2 12 5 2 8 12 12 13 12 13 10 6 10 10 10 3
5 3 3 6 7 12 12 12 13 8 10 12 13 17 2 9 2 2 2 6 7 8 7 9 3 6 6 8 8 9 6 6 8 3 5 10 6 10 10 4 10 15 20 8 5 2 3 6 3 3 3 2 1 2 2 3 5 2 1 3 8 5 6 5 1 6 4 5 6 3 5 13 11 16 4 6 9 10 11 12 13 15 13 12 13 12 10 7
4 3 4 7 10 13 12 13 13 9 8 9 10 12 5 11 3 3 1 3 1 8 9 9 7 7 4 10 4 6 11 11 12 10 7 6 7 8 16 11 9 15 14 10 4 2 3 7 2 1 3 3 2 6 10 7 0 2 1 3 4 3 2 7 7 1 1 7 1 6 1 14 8 8 5 10 12 9 10 9 11 13 10 10 10 8 8 5
5 3 7 6 13 11 11 12 9 12 10 12 11 9 1 8 2 2 4 1 2 4 6 9 3 6 6 6 11 9 10 5 11 10 9 6 11 3 10 12 6 8 13 16 7 4 4 1 6 4 3 2 6 9 10 13 11 5 7 8 4 3 4 3 1 2 3 2 3 5 11 13 7 8 7 9 12 13 13 12 5 4 8 7 6 6 5 6
3 3 2 6 12 13 13 7 7 12 9 1 3 6 3 5 5 4 4 7 3 3 3 2 5 9 8 6 4 3 7 8 7 7 8 7 11 4 11 11 8 9 8 8 11 5 3 5 8 6 4 9 4 1 4 10 13 13 16 15 17 12 8 6 6 3 1 4 5 3 12 17 2 1 7 8 10 10 12 10 7 8 8 3 4 5 4 5
4 7 4 10 13 16 11 11 6 5 2 8 11 8 7 4 2 2 4 3 5 1 3 2 3 1 4 8 5 8 7 6 8 7 7 10 12 9 2 11 9 17 15 12 16 15 7 3 3 5 9 8 2 2 1 3 4 2 2 3 5 7 7 6 8 6 0 3 4 2 4 22 1 5 5 5 7 11 8 6 7 7 7 5 6 6 5 4
4 4 3 13 16 16 11 9 6 5 4 4 3 2 2 2 4 3 7 5 4 2 1 1 3 2 3 4 2 4 10 5 12 11 7 9 8 8 2 6 7 12 8 1 5 4 5 3 3 7 4 3 1 1 2 2 1 3 3 0 6 11 13 12 6 4 7 4 5 5 4 18 4 2 2 1 2 3 1 7 8 6 5 5 6 6 5 4
3 2 2 5 16 14 12 13 11 10 9 4 9 5 7 2 4 5 6 9 8 6 9 4 1 4 2 2 2 6 7 5 5 8 6 2 5 4 5 8 15 10 11 10 10 11 6 4 7 4 2 2 1 1 3 2 1 5 6 8 13 12 10 3 3 0 6 11 13 9 13 19 2 1 1 3 1 3 5 6 7 7 6 5 7 6 3 3
3 2 3 3 13 13 12 10 10 10 11 10 8 13 8 7 7 10 7 7 4 3 6 6 8 3 3 1 1 1 1 6 1 4 5 1 4 3 5 6 13 9 4 3 3 11 7 8 8 7 9 10 9 10 12 8 10 6 4 7 10 11 12 4 7 5 9 10 17 10 12 22 4 2 6 4 2 3 7 6 3 5 8 7 7 6 7 6
3 5 4 4 3 10 12 7 7 9 12 11 10 10 13 11 6 9 9 8 9 5 7 2 2 4 3 4 2 4 6 6 8 2 4 5 3 1 2 4 11 10 7 7 6 8 2 4 11 13 13 13 13 5 6 10 7 8 12 13 14 15 15 10 3 7 12 17 11 15 20 22 21 11 8 8 3 7 9 7 7 8 12 11 6 6 6 5
1 7 5 9 1 6 6 10 10 10 12 11 8 9 15 16 8 3 12 5 9 9 7 7 4 8 3 5 9 10 9 7 6 5 7 5 0 3 2 3 6 10 6 3 4 5 2 2 8 12 16 16 16 16 8 12 10 13 13 14 16 15 17 16 15 18 19 12 16 17 18 18 25 26 15 8 6 8 8 7 7 8 11 9 9 10 8 7
7 3 5 2 4 2 5 7 13 13 10 15 6 9 13 16 14 9 8 10 9 12 7 3 8 12 13 17 12 9 11 12 8 8 8 3 1 2 2 1 6 3 3 2 3 6 4 6 6 7 13 17 19 18 14 12 14 13 16 16 17 20 18 18 21 24 20 16 19 17 16 22 22 25 21 17 14 11 13 11 11 11 5 4 7 6 8 10
5 4 3 3 3 2 1 2 6 14 14 14 8 11 10 14 18 13 8 7 8 7 13 7 13 16 16 14 12 9 11 8 9 10 8 5 9 2 2 2 4 2 4 1 1 1 3 7 9 13 16 18 18 20 20 18 15 18 16 16 16 19 22 24 25 27 25 20 16 18 23 26 23 25 22 12 13 13 8 8 8 6 10 12 9 9 10 10
7 8 5 1 2 5 3 1 4 4 8 11 10 9 11 13 16 13 11 10 7 9 12 17 14 15 16 14 13 12 14 16 13 12 10 15 6 6 7 10 1 2 3 7 4 2 7 7 13 8 10 13 20 21 21 20 16 15 15 8 10 16 21 26 23 18 20 20 22 22 26 26 20 22 16 15 13 9 4 11 13 12 11 11 11 11 12 11
1 2 2 1 2 4 5 3 1 4 4 3 7 4 8 13 15 12 11 13 13 10 12 17 17 12 13 16 16 17 15 16 17 18 14 16 13 11 10 3 12 4 4 4 2 2 9 7 5 5 9 11 15 16 20 17 12 10 11 10 13 18 21 17 12 14 18 21 23 21 19 19 23 13 10 16 9 7 11 11 11 10 13 13 14 14 12 13
5 0 1 1 6 4 4 1 2 3 6 4 6 8 6 8 9 8 8 6 11 12 13 17 16 13 12 15 19 20 19 16 15 15 11 10 15 5 11 5 11 13 8 9 2 3 4 4 7 6 12 11 17 16 16 14 9 10 14 22 29 20 15 8 14 20 23 19 19 14 17 19 22 21 15 18 6 7 12 13 12 16 19 15 16 17 16 13
Wind_Direction
159 151 154 137 133 126 126 110 101 95 89 75 68 63 52 42 28 28 15 0 355 354 341 339 341 336 341 341 342 344 330 208 149 179 120 61 319 305 300 295 291 300 189 232 163 190 132 54 87 347 138 33 1 150 345 58 1 249 194 199 205 71 200 157 191 187 26 189 159 175 190 195 175 169 150 178 179 257 127 224 172 226 238 240 85 95 109 124
166 157 154 145 142 135 135 144 120 116 97 96 70 63 52 43 32 15 10 357 345 342 340 333 335 337 337 340 344 347 328 208 106 81 43 28 320 306 303 291 298 308 235 228 166 163 157 122 82 140 158 106 275 53 252 83 300 205 107 229 240 168 94 181 179 154 179 101 152 158 167 234 162 163 159 213 188 193 218 221 209 234 216 169 167 151 163 159
166 159 162 161 154 144 140 155 138 127 110 111 91 59 52 40 32 14 354 356 341 334 337 332 333 335 337 338 341 344 296 115 184 45 77 9 322 307 301 296 298 328 233 282 233 151 196 103 122 152 39 120 3 107 291 47 308 47 241 201 237 172 66 239 177 150 17 83 140 159 160 228 96 189 121 229 184 175 226 217 193 227 227 198 167 163 165 172
158 167 171 170 175 171 164 158 163 129 109 82 76 52 39 22 17 6 350 347 337 330 333 332 331 335 335 335 343 323 252 164 180 66 67 335 325 315 303 302 313 277 312 56 82 97 97 106 96 96 121 81 98 274 165 35 266 116 231 234 86 105 201 124 218 73 105 333 140 150 106 203 150 163 190 188 228 231 238 234 230 222 225 188 160 164 169 177
154 181 186 180 179 188 169 169 170 152 113 64 61 33 359 349 351 343 343 328 334 332 331 329 331 331 334 334 336 226 240 238 141 350 31 328 331 324 317 310 336 266 177 136 113 74 91 88 124 42 7 121 74 121 49 42 1 155 13 13 54 131 175 63 174 75 156 340 148 135 167 193 94 162 217 200 225 237 229 227 217 244 259 155 165 169 167 182
154 171 198 189 198 189 196 171 178 180 176 177 154 214 275 309 316 336 320 325 331 333 328 328 329 331 328 328 260 218 230 219 41 67 335 337 322 330 335 7 12 44 116 64 83 102 179 98 191 141 123 135 17 149 74 359 344 168 98 263 247 351 37 54 149 160 192 166 166 174 170 95 183 208 211 227 232 234 63 56 2 308 48 78 159 153 175 186
144 182 190 198 205 206 199 200 179 201 210 210 212 184 221 290 309 314 315 320 327 330 330 328 330 332 329 302 215 225 73 33 316 72 356 334 336 343 28 57 70 301 285 179 155 176 45 127 177 114 109 83 68 78 47 316 218 297 123 143 156 248 9 4 97 124 199 195 186 68 82 198 158 229 133 227 235 249 112 98 74 30 58 162 163 176 184 190
152 188 172 181 208 203 203 205 189 206 223 239 214 199 180 250 310 314 313 311 320 326 328 327 334 331 327 197 210 105 201 108 59 76 334 331 353 337 172 324 77 139 75 33 84 137 176 114 152 189 63 110 129 140 62 158 57 141 132 189 120 233 1 266 275 170 203 223 49 198 184 184 211 277 357 247 235 238 231 157 209 161 171 183 193 187 195 195
154 174 149 185 208 197 211 207 209 208 213 214 193 244 300 335 284 317 299 308 312 326 321 329 336 327 296 265 143 159 140 74 24 332 328 343 351 31 149 243 8 169 112 83 339 137 217 137 121 237 155 134 199 121 36 231 120 360 67 137 137 136 66 112 136 174 249 162 192 187 205 94 58 311 262 256 241 184 71 208 194 198 203 196 206 201 197 200
177 183 159 192 198 202 210 208 213 214 193 212 236 244 232 346 316 294 305 299 308 314 319 334 340 327 277 162 88 215 101 290 281 300 325 277 295 266 68 43 350 105 141 6 54 41 243 167 216 161 106 71 150 67 297 300 62 44 116 103 131 58 128 77 256 125 263 284 188 241 205 129 129 250 261 117 32 347 199 214 179 213 221 207 210 212 212 210
194 186 195 195 201 204 203 208 211 209 184 198 307 325 18 337 324 313 313 296 296 301 320 336 339 310 216 223 193 177 115 195 346 326 302 248 92 50 20 352 327 100 102 69 59 352 33 114 112 118 303 105 151 67 16 69 137 57 112 152 148 113 107 112 103 109 253 194 182 273 271 152 160 200 246 134 105 4 221 220 209 212 226 216 217 220 219 222
188 176 189 191 199 199 206 202 201 207 208 242 320 311 315 317 312 316 302 308 290 300 317 332 332 315 245 69 176 53 230 342 6 351 72 268 65 27 326 323 275 211 187 102 53 8 320 122 173 344 138 201 122 148 83 166 49 95 229 222 161 308 197 97 185 106 299 172 176 128 269 228 179 229 239 107 129 148 248 249 225 222 225 226 227 226 223 219
188 190 193 190 192 202 199 197 203 203 211 247 261 278 297 298 307 301 287 279 285 297 322 328 325 273 226 177 83 104 293 341 126 74 79 71 111 104 72 10 54 47 10 111 95 23 80 118 254 92 29 100 110 340 115 173 47 249 74 350 253 230 242 89 139 79 214 106 61 248 269 241 205 225 227 119 119 173 258 246 231 227 222 226 223 229 230 219
181 202 201 190 190 190 191 201 211 217 225 235 255 284 297 304 305 296 291 267 294 306 323 329 324 263 224 83 96 20 72 75 198 145 52 293 124 71 85 56 55 59 32 87 84 61 358 244 88 101 58 43 111 212 150 70 314 220 34 264 323 287 211 100 55 104 214 86 223 239 259 265 148 219 157 59 254 246 263 258 235 225 226 227 228 231 233 226
182 197 201 193 188 193 203 212 216 227 229 240 252 278 293 307 307 294 287 282 282 304 316 325 252 217 179 93 335 80 109 220 187 38 358 252 128 104 72 64 55 50 63 79 110 88 151 273 120 73 72 294 116 168 83 80 35 18 239 209 141 244 170 150 139 196 239 107 244 202 262 263 276 288 79 35 252 224 251 263 259 243 236 233 236 237 238 236
184 190 196 200 200 201 206 213 220 242 240 244 265 289 297 296 302 297 292 295 317 338 254 240 67 323 135 197 111 135 201 189 157 350 348 293 314 112 130 101 123 67 88 60 66 205 45 59 60 25 116 96 170 142 125 159 157 25 264 280 198 291 321 303 122 17 9 109 210 223 265 333 247 342 68 71 178 217 257 266 263 254 247 242 240 238 242 241
187 189 196 199 207 206 207 212 228 251 263 250 270 287 287 288 299 315 309 308 319 237 235 130 122 289 244 70 136 219 167 101 345 252 14 42 275 139 137 86 65 84 66 118 57 101 17 63 286 201 20 69 24 163 199 236 232 204 77 254 79 252 254 249 113 109 90 253 203 225 252 254 269 209 169 136 156 202 252 263 260 250 239 234 242 242 242 239
187 190 194 203 208 210 215 218 219 233 238 255 267 285 283 296 328 257 214 203 252 226 195 176 217 218 194 336 203 157 28 111 70 37 358 5 39 96 70 114 226 96 95 108 24 37 338 96 280 139 133 143 176 184 204 233 207 184 179 222 213 219 239 281 283 92 206 127 257 224 239 262 266 271 265 237 178 249 264 263 267 265 252 238 232 240 240 238
183 189 194 198 206 209 213 217 222 228 239 257 286 285 267 277 215 243 64 336 188 133 175 180 181 196 197 158 76 99 179 42 236 265 130 125 47 94 80 64 94 140 122 204 73 253 40 109 316 153 212 181 196 198 212 86 100 161 179 211 306 257 208 241 247 91 254 230 237 235 246 259 263 266 268 264 200 241 260 267 267 262 255 250 246 243 238 232
183 186 193 194 203 207 215 217 226 227 231 265 272 220 170 164 151 139 125 279 262 30 3 102 84 68 87 353 131 37 266 214 155 24 0 328 177 121 55 5 74 61 148 206 114 77 317 184 198 208 221 202 193 202 52 83 76 86 85 157 267 274 274 262 232 92 158 273 249 249 252 259 268 272 276 278 270 255 260 259 255 252 248 243 243 244 241 234
183 186 188 190 198 201 211 219 223 223 98 171 258 235 180 174 144 191 180 248 83 202 36 39 22 49 60 101 127 166 131 77 10 106 128 57 303 176 153 174 145 180 70 357 103 69 238 217 225 231 55 77 148 108 115 91 67 200 155 242 239 197 263 289 313 90 162 227 279 235 261 263 267 272 271 273 268 263 259 259 256 253 245 241 243 249 244 240
187 186 184 186 192 194 206 218 221 164 125 223 242 226 338 246 3 350 124 214 190 130 80 70 236 104 32 311 13 321 347 106 117 138 124 212 137 205 151 203 168 204 114 139 126 151 201 208 233 91 97 89 95 137 156 188 152 139 248 206 271 254 268 277 265 81 204 198 266 279 278 273 271 270 266 257 254 254 248 242 253 264 267 255 244 243 249 228
186 187 182 179 187 191 199 206 214 153 218 220 210 231 235 289 323 275 252 83 173 82 172 159 200 209 122 358 203 233 188 173 174 190 190 208 116 265 136 175 188 113 147 186 188 169 210 237 264 120 137 117 84 132 145 137 187 204 188 208 239 71 303 279 123 63 151 222 313 329 296 280 274 258 252 249 245 255 258 256 256 253 258 258 253 249 245 243
187 184 182 178 177 189 193 188 189 182 226 233 255 225 356 28 145 277 273 263 313 209 202 215 237 144 185 160 176 160 206 168 128 184 122 187 167 128 168 173 128 155 187 191 208 193 193 74 34 174 166 173 137 153 161 182 216 207 217 227 246 220 229 234 321 318 192 241 337 282 273 263 239 253 252 249 254 260 264 261 256 249 242 250 264 273 256 258
186 183 179 175 176 177 182 154 184 219 164 264 267 249 196 178 332 336 247 126 191 231 60 277 175 230 158 49 145 186 196 54 249 24 155 194 129 154 167 63 164 200 187 172 37 246 247 104 118 104 116 126 126 168 197 187 242 212 208 221 237 241 256 228 330 329 291 258 95 340 316 273 165 241 259 285 277 262 235 234 249 248 242 241 250 254 255 236
185 181 175 174 172 165 148 174 217 180 167 214 225 199 159 170 309 334 52 73 261 131 49 211 150 203 125 133 121 146 84 230 45 137 127 286 353 126 104 155 285 204 160 158 195 251 248 76 214 146 145 149 182 203 189 199 232 248 232 203 232 245 254 265 233 289 259 264 109 306 351 290 200 241 233 236 260 266 251 225 254 258 244 220 236 249 241 238
184 181 174 172 167 144 149 232 140 140 144 250 205 151 152 161 306 313 203 57 280 171 164 21 162 186 333 152 154 118 197 202 123 104 153 358 193 6 204 154 114 25 115 142 24 225 141 148 109 114 125 154 164 211 199 187 188 230 82 150 159 195 219 232 220 224 270 356 276 175 231 283 286 230 225 237 252 266 278 276 267 260 255 238 242 246 242 232
187 179 175 172 164 166 251 124 142 173 227 73 16 108 123 151 87 246 238 250 256 107 146 214 235 334 206 134 301 191 10 82 144 195 3 294 284 121 296 178 185 176 172 164 220 54 182 162 176 157 175 163 207 206 124 182 188 50 110 200 143 176 176 151 203 236 299 347 286 153 155 263 267 106 21 212 247 253 261 264 263 263 255 240 253 249 240 233
189 183 175 171 167 180 104 158 170 203 225 99 94 108 91 102 290 132 155 229 113 80 3 111 275 87 64 131 108 56 132 3 344 63 305 36 24 266 205 191 210 103 52 241 239 110 325 221 199 180 166 208 133 12 186 173 203 133 121 91 90 88 78 157 156 243 243 293 267 151 185 248 276 145 162 264 238 253 251 251 257 262 276 253 253 249 230 221
201 182 174 170 168 171 209 50 220 6 104 131 117 105 121 169 156 169 111 242 125 197 84 97 184 170 160 155 177 41 152 33 46 130 73 161 91 54 26 335 124 130 191 63 21 35 359 256 318 194 213 83 105 54 33 357 38 123 160 113 96 79 91 110 64 18 289 252 258 166 192 212 281 155 190 177 201 210 233 248 259 268 273 255 235 238 221 207
211 187 178 170 176 174 135 213 200 118 136 130 126 125 140 33 175 141 208 205 48 88 86 165 161 124 156 158 179 270 63 66 161 161 135 161 122 57 153 102 78 109 88 305 238 122 125 60 173 240 53 111 106 91 47 72 135 158 158 146 146 167 149 197 164 147 243 267 103 343 208 214 240 225 225 210 330 244 233 242 251 266 265 267 355 263 229 209
239 196 179 177 172 148 179 203 145 139 152 146 140 147 176 154 338 197 218 68 261 176 175 166 40 173 168 63 63 166 156 88 167 180 160 174 164 173 196 188 153 169 237 207 212 85 225 204 128 70 266 152 153 105 77 92 229 228 150 160 186 217 63 226 177 217 196 245 93 25 113 288 238 246 319 274 256 242 232 239 250 263 276 258 219 248 267 328
231 205 186 183 163 191 205 82 124 133 123 150 143 223 185 152 207 203 229 149 244 109 182 62 157 170 162 146 178 139 2 173 162 201 84 302 176 211 212 223 187 174 227 178 176 144 230 81 185 160 109 242 187 170 146 166 200 192 187 176 187 227 219 260 208 321 312 278 105 191 137 254 301 279 234 243 234 231 228 233 244 255 262 265 231 239 227 217
224 188 192 189 190 185 152 149 137 140 132 62 110 80 7 189 212 197 209 190 60 343 67 114 119 89 164 172 178 161 163 290 167 180 190 165 194 199 211 233 199 206 92 105 196 186 232 232 208 146 222 158 209 217 173 158 166 202 195 184 210 188 182 218 195 234 251 293 114 221 171 237 162 154 256 241 250 245 236 252 248 250 258 266 278 269 264 258
195 222 182 191 199 184 153 155 148 138 119 117 76 201 175 214 219 194 207 149 149 52 71 127 133 145 189 342 319 227 15 166 201 129 192 157 202 210 183 203 209 183 118 184 220 124 226 280 68 173 5 147 192 198 91 102 112 179 179 20 287 227 87 253 317 288 344 329 269 159 230 269 230 12 272 236 293 261 237 257 264 262 257 259 272 256 236 221
95 245 186 181 189 175 155 161 150 143 130 132 151 196 214 196 205 192 215 96 114 132 128 95 94 156 176 157 353 201 312 107 173 148 227 228 348 206 210 199 190 190 164 200 127 188 64 235 70 354 63 193 168 52 177 190 210 167 147 212 201 8 206 192 95 82 127 258 260 152 265 251 283 252 220 233 224 238 240 244 245 250 253 250 259 271 265 224
215 132 210 187 198 157 165 158 156 152 148 159 169 205 221 246 305 67 145 165 154 134 154 145 204 174 175 202 176 192 190 104 167 184 198 141 266 217 200 224 160 181 213 175 205 247 187 176 18 133 202 332 26 304 81 23 34 104 211 204 71 112 1 198 243 143 210 251 276 134 259 282 272 291 82 170 234 244 234 235 234 241 248 236 246 250 264 270
175 209 279 232 184 159 162 164 152 164 163 168 190 210 169 229 249 50 33 103 118 158 162 193 144 189 190 169 189 173 193 202 162 204 200 167 243 163 175 202 185 201 204 215 237 161 172 248 139 338 13 73 358 191 120 55 355 290 334 143 179 201 209 184 218 248 216 233 274 236 267 265 219 254 155 155 190 228 236 232 233 246 245 237 246 243 251 261
172 168 243 207 149 161 165 162 156 160 183 175 195 211 202 228 65 100 206 20 160 163 186 200 165 218 170 190 126 152 161 186 160 190 164 191 228 176 189 169 203 204 195 173 221 136 191 223 186 307 164 72 188 181 204 167 279 28 78 199 4 324 250 159 207 297 219 265 111 273 151 277 204 222 177 212 186 206 211 213 225 230 229 231 238 245 244 236
186 174 242 154 156 148 153 162 170 167 178 198 196 222 92 208 129 100 27 177 133 199 219 190 201 151 191 195 154 159 214 228 163 189 203 162 212 123 195 178 172 161 180 188 202 107 200 75 251 105 310 186 183 198 210 160 178 182 203 199 172 212 345 331 2 206 229 236 242 298 295 259 264 151 180 193 190 200 213 217 211 246 247 238 237 233 226 217
232 236 232 146 157 145 145 168 202 193 176 333 279 228 188 204 160 230 81 34 98 357 62 357 186 201 161 135 232 235 168 182 189 192 201 200 196 224 194 182 138 144 148 168 207 181 201 159 223 128 186 217 224 107 249 199 187 183 182 195 188 160 176 179 223 92 237 212 228 193 252 275 141 262 160 183 193 196 212 214 182 221 237 208 233 257 264 276
224 224 200 160 151 145 147 187 209 170 163 185 201 179 212 150 71 143 141 52 26 95 3 103 342 68 137 196 164 164 156 184 194 201 222 217 204 234 63 177 161 143 150 173 198 196 185 139 190 183 206 205 109 44 325 322 359 33 303 259 178 189 179 186 220 192 113 242 23 280 358 269 224 142 178 175 197 201 183 205 203 213 215 212 213 212 218 227
233 236 22 155 162 154 156 213 193 186 177 218 60 174 314 349 208 157 161 162 194 191 359 109 222 170 293 193 144 147 177 193 177 202 201 231 256 209 37 179 135 162 142 48 52 27 89 176 193 232 64 14 65 56 69 10 18 282 233 167 182 198 196 204 227 144 182 138 226 217 211 263 104 327 128 45 337 348 68 181 215 225 203 215 260 251 212 192
271 286 280 197 168 165 173 201 194 195 206 192 196 218 193 251 151 167 192 184 169 163 204 186 355 261 307 45 104 173 188 217 226 220 239 201 253 27 159 153 159 174 172 190 182 165 165 228 201 200 204 163 205 211 220 95 180 227 216 191 211 212 199 44 71 197 225 195 217 184 232 262 88 77 292 176 137 241 198 223 208 237 262 254 226 224 240 238
300 272 280 231 183 177 201 193 204 189 207 198 167 214 201 220 221 216 194 183 177 140 156 214 204 155 175 92 112 65 193 213 25 247 260 326 260 48 314 179 187 196 217 2 12 166 171 162 168 199 210 219 210 203 213 191 199 199 235 221 196 202 192 139 223 201 229 226 215 216 244 256 209 105 195 210 210 272 254 248 239 240 252 231 250 247 198 223
198 227 186 247 250 196 208 222 207 193 198 197 196 206 197 215 209 206 191 211 185 187 201 129 128 118 150 153 180 207 222 224 206 252 190 243 236 286 296 246 198 204 210 121 145 158 166 203 190 194 207 225 233 249 43 106 114 186 213 190 197 206 204 199 229 220 220 235 228 217 233 258 269 243 187 208 200 228 244 226 225 230 232 226 201 266 270 216
273 227 168 219 103 256 228 198 202 202 210 170 210 163 206 210 195 151 184 215 192 195 201 194 161 176 195 182 207 221 215 216 203 203 235 225 307 263 328 212 251 242 181 108 147 103 77 199 219 216 218 228 239 246 199 150 172 204 206 201 200 188 197 196 206 223 221 233 247 236 230 248 261 263 245 208 198 250 252 253 233 246 246 233 213 191 230 271
226 245 241 296 259 185 196 251 201 205 202 185 202 179 203 202 202 199 174 221 185 194 195 168 192 196 179 192 183 208 193 215 193 216 225 212 219 275 278 130 205 242 167 235 197 166 154 218 222 226 239 239 245 248 230 187 207 201 207 198 194 197 195 199 218 227 219 218 235 244 234 239 251 262 256 240 252 228 221 220 227 231 278 287 257 245 217 216
247 320 278 305 251 297 24 28 228 203 200 194 202 208 209 200 210 198 175 179 206 193 196 218 205 206 210 197 194 211 199 194 224 224 224 216 208 160 245 329 257 84 159 141 163 199 153 224 219 214 229 236 243 248 248 232 229 238 231 215 197 189 196 204 216 221 221 229 239 251 254 249 245 254 258 253 235 252 228 209 225 237 232 232 226 218 227 225
203 214 227 139 231 297 313 318 153 209 219 190 198 210 209 204 213 191 187 170 188 201 189 220 216 203 209 209 204 214 203 205 201 209 215 215 223 187 222 211 134 357 155 201 171 268 177 215 212 220 236 239 242 243 246 245 236 244 242 233 212 207 207 207 215 221 228 239 239 239 244 256 253 248 269 269 265 275 238 224 216 219 225 235 233 223 220 224
9 183 11 355 289 248 254 242 216 180 196 217 201 202 215 215 218 191 199 189 183 181 187 209 220 221 208 213 217 224 221 217 215 220 204 195 216 197 195 228 184 167 185 198 178 226 173 231 196 205 237 243 247 246 247 250 245 245 253 231 222 220 222 217 221 214 221 226 232 242 251 256 260 257 232 267 252 200 234 227 223 232 232 228 232 229 219 224
211 218 29 125 252 213 235 204 163 190 235 192 192 207 186 209 225 184 219 223 219 203 189 203 213 216 217 210 218 222 224 225 227 230 230 205 216 219 211 207 195 183 179 204 154 164 170 199 221 198 232 233 242 242 247 254 256 242 237 240 235 224 221 203 217 228 229 225 233 230 234 241 253 259 258 254 230 243 251 248 225 226 230 226 229 227 219 220